Content
SEND FEEDBACK

Daily
Averages
Monthly
Summary
United States of America

CENTRALIA, MISSOURI


Home > North America > United States > Missouri
Elevation: 876 feet     Latitude: 39 12N     Longitude: 092 08W

WEATHER
 
SELECT A DAY
Number of Records: 201,893;   Date Range: 1/1/95 - 7/27/14
 
SHARE

PRINT THIS DATA

[ ← Previous Day ]
WEATHER ALMANAC - JANUARY 31, 2013
[ Next Day → ]
[ °C ]   °F
Weather ElementAverageHighLow
Temperature21.3 °F30 °F (10:54 am)10 °F (9:54 pm)
Dewpoint10.1 °F18 °F (6:54 am)-2 °F (10:54 pm)
Humidity62.2 %75 % (6:54 am)48 % (2:54 pm)
Barometer30.15 in30.47 in (11:54 pm)29.96 in (2:25 am)
Wind Speed14.5 mph21.9 mph (2:54 pm)
Wind Gust32.2 mph (3:54 pm)
Weather ElementAverage
Visibility10 mi
Wind DirectionWNW (282.9 °)

Weather ElementTotal
Precipitation---
Heating Degree Days45 (Base 65)
Averaged from 24 records on January 31, 2013
WEATHER CONDITIONS BREAKOUT
WIND DIRECTION BREAKOUT
WEATHER BY HOUR - JANUARY 31, 2013
[ °C ]   °F
Local TimeTemperatureDewpointHumidityBarometerVisibilityWind DirectionWind SpeedGust SpeedPrecipitationEventsConditions
12:54 AM25.0 °F14.0 °F63 %29.98 in10.0 miWest (280°)12.7 mphOvercast
1:54 AM25.0 °F15.1 °F66 %29.99 in10.0 miWest (280°)15.0 mphOvercast
2:25 AM24.1 °F14.0 °F65 %29.96 in10.0 miWest (270°)12.7 mphOvercast
2:54 AM24.1 °F15.1 °F69 %29.98 in10.0 miWest (260°)12.7 mphOvercast
3:54 AM25.0 °F16.0 °F69 %29.98 in10.0 miWSW (250°)10.4 mphOvercast
4:54 AM25.0 °F17.1 °F72 %29.98 in10.0 miWSW (250°)10.4 mphOvercast
5:54 AM25.0 °F17.1 °F72 %29.97 in10.0 miWSW (240°)8.1 mphOvercast
6:54 AM25.0 °F18.0 °F75 %29.99 in10.0 miWest (260°)6.9 mphOvercast
7:54 AM26.1 °F18.0 °F71 %30.02 in10.0 miWest (260°)9.2 mphOvercast
8:54 AM27.0 °F18.0 °F69 %30.04 in10.0 miWest (270°)11.5 mphOvercast
9:54 AM28.9 °F18.0 °F64 %30.06 in10.0 miWest (280°)16.1 mphScattered Clouds
10:54 AM30.0 °F18.0 °F61 %30.07 in10.0 miWNW (300°)17.3 mphMostly Cloudy
11:54 AM28.9 °F16.0 °F58 %30.08 in10.0 miWNW (290°)16.1 mphMostly Cloudy
12:54 PM27.0 °F12.0 °F53 %30.09 in10.0 miWest (280°)18.4 mph25.3 mphOvercast
2:54 PM23.0 °F6.1 °F48 %30.18 in10.0 miWNW (300°)21.9 mph31.1 mphMostly Cloudy
3:54 PM19.9 °F6.1 °F55 %30.22 in10.0 miWNW (300°)19.6 mph32.2 mphMostly Cloudy
4:54 PM17.1 °F3.0 °F54 %30.25 in10.0 miWNW (300°)21.9 mph26.5 mphClear
5:54 PM16.0 °F3.0 °F57 %30.29 in10.0 miNW (310°)18.4 mph24.2 mphClear
6:54 PM15.1 °F1.0 °F54 %30.33 in10.0 miNW (310°)19.6 mph27.6 mphScattered Clouds
7:54 PM12.9 °F1.0 °F59 %30.37 in10.0 miWNW (300°)18.4 mph27.6 mphClear
8:54 PM10.9 °F-0.9 °F59 %30.40 in10.0 miNW (310°)13.8 mphClear
9:54 PM10.0 °F-0.9 °F61 %30.43 in10.0 miWNW (300°)11.5 mphClear
10:54 PM10.0 °F-2.0 °F58 %30.46 in10.0 miWNW (290°)12.7 mphClear
11:54 PM10.0 °F-0.9 °F61 %30.47 in10.0 miWNW (300°)11.5 mphClear
Hourly data recorded from KCOU, located miles away from Centralia, Missouri







STORIES FROM OUR PARTNERS